Weather History for Galax, VA

Change the Weather History Date:

Friday, November 15, 2013

  Actual Average (KBLF) Record (KBLF)
Temperature  
Mean Temperature 45 °F 47 °F  
Max Temperature 60 °F 56 °F 75 °F (2005)
Min Temperature 30 °F 39 °F 9 °F (1969)
Degree Days  
Heating Degree Days 20 18  
Month to date heating degree days 230  
Since 1 July heating degree days 594  
Cooling Degree Days 0 0  
Month to date cooling degree days 0  
Year to date cooling degree days 851  
Moisture  
Dew Point 31 °F    
Average Humidity 61    
Maximum Humidity 100    
Minimum Humidity 18    
Precipitation  
Precipitation 0.31 in 0.09 in 0.44 in (2007)
Month to date precipitation 1.28  
Year to date precipitation 35.31  
Snow  
Snow 0.00 in - - ()
Month to date snowfall  
Since 1 July snowfall  
Since 1 September snowfall  
Snow Depth -    
Sea Level Pressure  
Sea Level Pressure 30.26 in    
Wind  
Wind Speed 5 mph (SSW)    
Max Wind Speed 12 mph    
Max Gust Speed 18 mph    
Visibility 8 miles    
Events Rain    
T = Trace of Precipitation, MM = Missing Value Source: NWS Daily Summary

Daily Weather History Graph

Daily Weather History Graph

Search for Another Location

Airport:

Trip Planner

Search our weather history database for the weather conditions in past years. The results will help you decide how hot, cold, wet, or windy it might be!

Date:

Astronomy

Nov. 15, 2013 Rise Set
Actual Time 7:01 AM EST 5:13 PM EST
Civil Twilight 6:33 AM EST 5:41 PM EST
Nautical Twilight 6:02 AM EST 6:12 PM EST
Astronomical Twilight 5:32 AM EST 6:43 PM EST
Moon 4:07 PM EST (11/15) 4:59 AM EST (11/15)
Length of Visible Light 11h 07m
Length of Day
10h 12m
Waxing Gibbous, 96% of the Moon is Illuminated
Nov 15
Waxing Gibbous
Nov 17
Full
Nov 25
Last Quarter
Dec 2
New
Dec 9
First Quarter

Hourly Weather History & Observations

Time (EST) Temp. Windchill Dew Point Humidity Pressure Visibility Wind Dir Wind Speed Gust Speed Precip Events Conditions
12:15 AM 42.8 °F 40.1 °F 17.6 °F 36% 30.30 in 10.0 mi South 4.6 mph - N/A   Clear
12:35 AM 41.0 °F - 17.6 °F 39% 30.29 in 10.0 mi Calm Calm - N/A   Clear
12:55 AM 39.2 °F 34.2 °F 17.6 °F 42% 30.29 in 10.0 mi South 6.9 mph - N/A   Clear
1:15 AM 42.8 °F 37.5 °F 17.6 °F 36% 30.28 in 10.0 mi South 9.2 mph - N/A   Clear
1:55 AM 41.0 °F 38.0 °F 17.6 °F 39% 30.27 in 10.0 mi South 4.6 mph - N/A   Clear
2:15 AM 41.0 °F 36.4 °F 17.6 °F 39% 30.27 in 10.0 mi South 6.9 mph - N/A   Clear
2:35 AM 42.8 °F 39.3 °F 15.8 °F 34% 30.26 in 10.0 mi South 5.8 mph - N/A   Clear
2:55 AM 41.0 °F 36.4 °F 15.8 °F 36% 30.26 in 10.0 mi South 6.9 mph - N/A   Clear
3:15 AM 39.2 °F 37.0 °F 17.6 °F 42% 30.27 in 10.0 mi South 3.5 mph - N/A   Clear
3:35 AM 37.4 °F 33.8 °F 17.6 °F 45% 30.27 in 10.0 mi SSW 4.6 mph - N/A   Clear
3:55 AM 37.4 °F 33.8 °F 17.6 °F 45% 30.28 in 10.0 mi WSW 4.6 mph - N/A   Clear
4:15 AM 35.6 °F 29.9 °F 19.4 °F 52% 30.28 in 10.0 mi SW 6.9 mph - N/A   Clear
4:35 AM 37.4 °F 33.8 °F 17.6 °F 45% 30.27 in 7.0 mi SSW 4.6 mph - N/A   Clear
4:55 AM 37.4 °F 33.8 °F 17.6 °F 45% 30.26 in 7.0 mi South 4.6 mph - N/A   Clear
5:15 AM 39.2 °F 35.9 °F 17.6 °F 42% 30.26 in 7.0 mi South 4.6 mph - N/A   Clear
5:35 AM 37.4 °F 33.8 °F 17.6 °F 45% 30.26 in 7.0 mi South 4.6 mph - N/A   Clear
5:55 AM 33.8 °F 28.6 °F 19.4 °F 56% 30.27 in 10.0 mi WSW 5.8 mph - N/A   Clear
6:15 AM 30.2 °F 23.4 °F 19.4 °F 64% 30.28 in 10.0 mi WSW 6.9 mph - N/A   Clear
6:35 AM 33.8 °F 28.6 °F 19.4 °F 56% 30.28 in 10.0 mi WSW 5.8 mph - N/A   Clear
6:55 AM 35.6 °F 30.7 °F 19.4 °F 52% 30.28 in 10.0 mi SW 5.8 mph - N/A   Clear
7:15 AM 33.8 °F 29.6 °F 19.4 °F 56% 30.29 in 10.0 mi South 4.6 mph - N/A   Clear
7:35 AM 35.6 °F 29.2 °F 19.4 °F 52% 30.30 in 10.0 mi SSW 8.1 mph - N/A   Clear
7:55 AM 33.8 °F 27.7 °F 19.4 °F 56% 30.31 in 10.0 mi SSW 6.9 mph - N/A   Clear
8:15 AM 33.8 °F 28.6 °F 21.2 °F 60% 30.31 in 10.0 mi SW 5.8 mph - N/A   Clear
8:35 AM 33.8 °F 29.6 °F 21.2 °F 60% 30.31 in 10.0 mi South 4.6 mph - N/A   Clear
8:55 AM 37.4 °F 32.1 °F 21.2 °F 52% 30.31 in 10.0 mi South 6.9 mph - N/A   Clear
9:15 AM 39.2 °F 34.2 °F 21.2 °F 49% 30.31 in 10.0 mi SSW 6.9 mph - N/A   Clear
9:35 AM 42.8 °F 41.1 °F 21.2 °F 42% 30.31 in 10.0 mi South 3.5 mph - N/A   Clear
9:55 AM 44.6 °F 43.1 °F 24.8 °F 46% 30.31 in 7.0 mi West 3.5 mph - N/A   Clear
10:15 AM 44.6 °F 42.2 °F 21.2 °F 39% 30.31 in 10.0 mi WSW 4.6 mph - N/A   Clear
10:35 AM 44.6 °F 43.1 °F 21.2 °F 39% 30.31 in 10.0 mi WSW 3.5 mph - N/A   Clear
10:55 AM 48.2 °F - 17.6 °F 30% 30.30 in 10.0 mi SSW 4.6 mph - N/A   Clear
11:15 AM 48.2 °F - 21.2 °F 34% 30.31 in 10.0 mi SW 3.5 mph - N/A   Clear
11:35 AM 51.8 °F - 21.2 °F 30% 30.30 in 10.0 mi WSW 3.5 mph - N/A   Clear
11:55 AM 55.4 °F - 19.4 °F 25% 30.28 in 10.0 mi WSW 3.5 mph - N/A   Clear
12:15 PM 57.2 °F - 17.6 °F 21% 30.27 in 10.0 mi South 4.6 mph - N/A   Clear
12:35 PM 57.2 °F - 14.0 °F 18% 30.26 in 10.0 mi SSW 5.8 mph - N/A   Clear
12:55 PM 60.8 °F - 17.6 °F 19% 30.25 in 10.0 mi SSW 10.4 mph - N/A   Clear
1:15 PM 60.8 °F - 19.4 °F 20% 30.24 in 10.0 mi South 9.2 mph - N/A   Clear
1:35 PM 59.0 °F - 26.6 °F 29% 30.24 in 10.0 mi SSW 9.2 mph - N/A   Clear
1:55 PM 59.0 °F - 37.4 °F 45% 30.22 in 10.0 mi South 10.4 mph - N/A   Clear
2:15 PM 59.0 °F - 42.8 °F 55% 30.22 in 10.0 mi South 8.1 mph 18.4 mph N/A   Clear
2:35 PM 57.2 °F - 44.6 °F 63% 30.22 in 10.0 mi South 11.5 mph 17.3 mph N/A   Scattered Clouds
2:55 PM 55.4 °F - 44.6 °F 67% 30.22 in 10.0 mi South 10.4 mph 18.4 mph N/A   Mostly Cloudy
3:15 PM 55.4 °F - 41.0 °F 58% 30.21 in 10.0 mi SSE 8.1 mph - N/A   Overcast
3:35 PM 55.4 °F - 42.8 °F 63% 30.21 in 10.0 mi South 8.1 mph - N/A   Overcast
3:55 PM 55.4 °F - 44.6 °F 67% 30.21 in 10.0 mi South 5.8 mph - N/A   Overcast
4:15 PM 53.6 °F - 46.4 °F 77% 30.22 in 7.0 mi SSW 6.9 mph - N/A   Drizzle
4:35 PM 51.8 °F - 48.2 °F 88% 30.22 in 3.0 mi South 6.9 mph - 0.01 in Rain Heavy Rain
4:55 PM 50.0 °F - 48.2 °F 94% 30.22 in 2.5 mi South 3.5 mph - 0.01 in   Drizzle
5:15 PM 48.2 °F - 48.2 °F 100% 30.23 in 3.0 mi South 4.6 mph - 0.04 in   Heavy Drizzle
5:35 PM 48.2 °F - 48.2 °F 100% 30.22 in 4.0 mi South 4.6 mph - 0.06 in Rain Rain
5:55 PM 48.2 °F - 48.2 °F 100% 30.23 in 3.0 mi SSE 4.6 mph - 0.01 in   Heavy Drizzle
6:15 PM 48.2 °F - 48.2 °F 100% 30.23 in 3.0 mi SSE 3.5 mph - 0.02 in Rain Light Rain
6:35 PM 48.2 °F - 48.2 °F 100% 30.23 in 7.0 mi Calm Calm - 0.03 in Rain Light Rain
6:55 PM 48.2 °F - 48.2 °F 100% 30.23 in 7.0 mi Calm Calm - N/A Rain Rain
7:15 PM 48.2 °F - 48.2 °F 100% 30.23 in 7.0 mi Calm Calm - 0.02 in Rain Light Rain
7:35 PM 48.2 °F - 48.2 °F 100% 30.23 in 5.0 mi Calm Calm - 0.03 in Rain Light Rain
7:55 PM 48.2 °F - 46.4 °F 93% 30.24 in 5.0 mi Calm Calm - 0.01 in Rain Light Rain
8:15 PM 48.2 °F - 46.4 °F 93% 30.23 in 3.0 mi South 3.5 mph - 0.04 in Rain Light Rain
8:35 PM 48.2 °F - 46.4 °F 93% 30.24 in 3.0 mi South 3.5 mph - 0.05 in Rain Rain
8:55 PM 48.2 °F - 46.4 °F 93% 30.24 in 2.5 mi SSW 3.5 mph - 0.02 in Rain Rain
9:15 PM 48.2 °F - 46.4 °F 93% 30.25 in 4.0 mi South 3.5 mph - 0.06 in Rain Light Rain
9:35 PM 48.2 °F - 46.4 °F 93% 30.24 in 2.0 mi SSE 3.5 mph - 0.09 in Rain Rain
9:55 PM 48.2 °F - 46.4 °F 93% 30.25 in 0.8 mi South 3.5 mph - 0.01 in Rain Light Rain
10:15 PM 48.2 °F - 46.4 °F 93% 30.25 in 5.0 mi South 3.5 mph - 0.02 in Rain Rain
10:35 PM 48.2 °F - 46.4 °F 93% 30.25 in 7.0 mi South 4.6 mph - 0.03 in Rain Light Rain
10:55 PM 48.2 °F - 46.4 °F 93% 30.25 in 5.0 mi Calm Calm - N/A Rain Light Rain
11:15 PM 48.2 °F - 46.4 °F 93% 30.25 in 3.0 mi SSE 3.5 mph - 0.01 in Rain Rain
11:35 PM 48.2 °F - 46.4 °F 93% 30.25 in 2.5 mi Calm Calm - 0.01 in   Overcast
11:55 PM 48.2 °F - 46.4 °F 93% 30.25 in 1.8 mi SE 3.5 mph - N/A Rain Light Rain